Queralbs





Hora UTC 17:05
Temperatura 17.8 ºC
Humitat 59.0 %
Pressió 1024.4 hPa
Pluja 0.0 mm
Velocitat vent 4.8 km/h
Direcció vent S
Radiació solar 120.0 W/m²

Dades diàries 2020-05-25



Hora UTC (hivern +1h; estiu +2h)
Temperatura (ºC) Humitat (%) Pressió (hPa) Velocitat vent (km/h) Precipitació (mm) Radiació solar (W/m²)
Hora UTC Aire Humitat Pressió Vel. Dir. Vel. Max Dir. Intent. màx 5 min. Rad. Sol.
00:05 13.3 75.0 1026.1 0.0 SSE 0.0 0.0 0.0
00:10 13.3 75.0 1026.1 1.6 SSE 3.2 0.0 0.0
00:15 13.3 75.0 1026.2 0.0 SSE 3.2 0.0 0.0
00:20 13.3 75.0 1026.1 0.0 SSE 1.6 0.0 0.0
00:25 13.3 75.0 1026.2 0.0 SSE 1.6 0.0 0.0
00:30 13.2 75.0 1026.1 0.0 SSE 3.2 0.0 0.0
00:35 13.2 75.0 1026.1 0.0 SSE 3.2 0.0 0.0
00:40 13.1 75.0 1026.0 0.0 SSE 1.6 0.0 0.0
00:45 13.1 75.0 1025.9 0.0 SSE 0.0 0.0 0.0
00:50 13.1 75.0 1026.0 0.0 SSE 0.0 0.0 0.0
00:55 13.0 75.0 1026.0 0.0 SSE 0.0 0.0 0.0
01:00 13.0 75.0 1025.9 0.0 SSE 0.0 0.0 0.0
01:05 13.0 75.0 1025.9 3.2 S 4.8 0.0 0.0
01:10 12.9 75.0 1025.9 1.6 SSE 8.0 0.0 0.0
01:15 12.9 75.0 1025.9 4.8 SSE 4.8 0.0 0.0
01:20 12.8 75.0 1025.9 1.6 SE 6.4 0.0 0.0
01:25 12.7 75.0 1025.9 3.2 E 6.4 0.0 0.0
01:30 12.7 75.0 1025.9 3.2 E 4.8 0.0 0.0
01:35 12.7 75.0 1025.8 1.6 E 4.8 0.0 0.0
01:40 12.7 75.0 1025.8 0.0 E 3.2 0.0 0.0
01:45 12.6 75.0 1025.7 0.0 E 3.2 0.0 0.0
01:50 12.6 75.0 1025.6 0.0 E 3.2 0.0 0.0
01:55 12.5 75.0 1025.5 0.0 E 3.2 0.0 0.0
02:00 12.5 75.0 1025.5 0.0 E 0.0 0.0 0.0
02:05 12.5 75.0 1025.4 0.0 E 0.0 0.0 0.0
02:10 12.5 75.0 1025.5 0.0 E 0.0 0.0 0.0
02:15 12.5 75.0 1025.4 0.0 E 0.0 0.0 0.0
02:20 12.6 75.0 1025.3 0.0 E 0.0 0.0 0.0
02:25 12.5 75.0 1025.3 0.0 E 0.0 0.0 0.0
02:30 12.5 75.0 1025.2 0.0 E 0.0 0.0 0.0
02:35 12.6 75.0 1025.2 0.0 E 0.0 0.0 0.0
02:40 12.6 75.0 1025.1 0.0 E 0.0 0.0 0.0
02:45 12.6 75.0 1025.1 0.0 E 0.0 0.0 0.0
02:50 12.6 75.0 1025.1 0.0 E 0.0 0.0 0.0
02:55 12.6 75.0 1025.1 0.0 S 0.0 0.0 0.0
03:00 12.6 75.0 1025.2 0.0 S 0.0 0.0 0.0
03:05 12.6 75.0 1025.1 0.0 S 0.0 0.0 0.0
03:10 12.6 75.0 1025.2 0.0 S 0.0 0.0 0.0
03:15 12.6 75.0 1025.2 0.0 SSE 3.2 0.0 0.0
03:20 12.5 75.0 1025.2 0.0 SSE 3.2 0.0 0.0
03:25 12.5 75.0 1025.2 0.0 SSE 1.6 0.0 0.0
03:30 12.5 75.0 1025.2 0.0 SSE 0.0 0.0 0.0
03:35 12.6 75.0 1025.1 0.0 SSE 0.0 0.0 0.0
03:40 12.6 75.0 1025.1 0.0 SSE 0.0 0.0 0.0
03:45 12.6 75.0 1025.0 0.0 SSE 3.2 0.0 0.0
03:50 12.6 75.0 1025.0 1.6 SSE 3.2 0.0 0.0
03:55 12.6 75.0 1024.9 1.6 SSE 1.6 0.0 0.0
04:00 12.6 75.0 1024.9 0.0 SSE 3.2 0.0 0.0
04:05 12.6 75.0 1025.0 0.0 SSE 3.2 0.0 0.0
04:10 12.5 75.0 1025.0 0.0 SSE 1.6 0.0 0.0
04:15 12.5 75.0 1025.1 1.6 SE 4.8 0.0 0.0
04:20 12.5 75.0 1025.1 0.0 SE 4.8 0.0 0.0
04:25 12.5 75.0 1025.2 0.0 NNE 1.6 0.0 0.0
04:30 12.5 75.0 1025.1 0.0 NNE 1.6 0.0 0.0
04:35 12.4 76.0 1025.1 1.6 NNE 3.2 0.0 5.0
04:40 12.5 76.0 1025.0 0.0 NNE 3.2 0.0 7.0
04:45 12.5 76.0 1025.2 1.6 NNE 3.2 0.0 11.0
04:50 12.5 76.0 1025.1 0.0 NNE 3.2 0.0 16.0
04:55 12.5 76.0 1025.3 0.0 NNE 3.2 0.0 21.0
05:00 12.5 76.0 1025.2 0.0 NNE 1.6 0.0 30.0
05:05 12.6 76.0 1025.2 1.6 NNE 3.2 0.0 32.0
05:10 12.6 76.0 1025.3 1.6 NNE 3.2 0.0 30.0
05:15 12.6 76.0 1025.2 0.0 NNE 1.6 0.0 37.0
05:20 12.6 76.0 1025.1 0.0 NNE 3.2 0.0 46.0
05:25 12.7 76.0 1025.1 0.0 NNE 3.2 0.0 47.0
05:30 12.7 76.0 1025.2 0.0 NNE 3.2 0.0 53.0
05:35 12.7 76.0 1025.2 3.2 E 4.8 0.0 51.0
05:40 12.7 76.0 1025.2 0.0 E 4.8 0.0 47.0
05:45 12.7 76.0 1025.3 0.0 E 3.2 0.0 72.0
05:50 12.7 76.0 1025.3 0.0 E 0.0 0.0 102.0
05:55 12.8 76.0 1025.3 1.6 E 3.2 0.0 90.0
06:00 12.9 76.0 1025.1 1.6 E 3.2 0.0 83.0
06:05 13.1 76.0 1025.2 1.6 E 3.2 0.0 95.0
06:10 13.0 76.0 1025.2 0.0 E 3.2 0.0 116.0
06:15 13.0 76.0 1025.2 0.0 E 3.2 0.0 97.0
06:20 13.1 75.0 1025.2 3.2 E 4.8 0.0 67.0
06:25 13.1 75.0 1025.2 1.6 E 4.8 0.0 26.0
06:30 13.1 75.0 1025.3 1.6 SSE 4.8 0.0 25.0
06:35 13.1 75.0 1025.3 3.2 SSE 8.0 0.0 26.0
06:40 13.0 75.0 1025.2 1.6 SSE 4.8 0.0 35.0
06:45 13.1 75.0 1025.2 3.2 SSE 8.0 0.0 33.0
06:50 12.9 75.0 1025.2 3.2 SSE 11.3 0.0 42.0
06:55 12.8 75.0 1025.3 3.2 S 11.3 0.0 54.0
07:00 12.8 75.0 1025.3 6.4 SSE 12.9 0.0 86.0
07:05 12.6 74.0 1025.3 1.6 S 12.9 0.0 79.0
07:10 12.4 74.0 1025.2 1.6 SSE 8.0 0.0 88.0
07:15 12.4 74.0 1025.3 1.6 SSE 8.0 0.0 109.0
07:20 12.4 73.0 1025.4 1.6 SSE 8.0 0.0 137.0
07:25 12.5 73.0 1025.4 3.2 SSE 6.4 0.0 169.0
07:30 12.5 72.0 1025.4 3.2 SSE 4.8 0.0 178.0
07:35 12.7 72.0 1025.5 3.2 SSE 4.8 0.0 174.0
07:40 12.7 71.0 1025.5 1.6 SSE 4.8 0.0 174.0
07:45 12.8 71.0 1025.5 0.0 SSE 4.8 0.0 197.0
07:50 13.1 70.0 1025.5 1.6 SSE 4.8 0.0 209.0
07:55 13.1 70.0 1025.5 1.6 SSE 4.8 0.0 218.0
08:00 13.1 69.0 1025.5 4.8 SE 4.8 0.0 265.0
08:05 13.2 69.0 1025.4 3.2 SE 6.4 0.0 281.0
08:10 13.3 68.0 1025.5 3.2 SE 6.4 0.0 315.0
08:15 13.5 68.0 1025.6 0.0 SE 4.8 0.0 292.0
08:20 13.7 67.0 1025.5 3.2 SE 6.4 0.0 304.0
08:25 13.9 67.0 1025.4 6.4 SE 6.4 0.0 392.0
08:30 14.2 67.0 1025.3 4.8 SE 6.4 0.0 415.0
08:35 14.4 65.0 1025.4 3.2 SSW 6.4 0.0 584.0
08:40 14.8 65.0 1025.4 4.8 SSE 9.7 0.0 471.0
08:45 14.9 63.0 1025.4 0.0 SSE 9.7 0.0 432.0
08:50 15.1 64.0 1025.6 1.6 SSE 9.7 0.0 536.0
08:55 15.3 63.0 1025.6 1.6 SSE 4.8 0.0 513.0
09:00 15.4 63.0 1025.6 3.2 SSE 4.8 0.0 504.0
09:05 15.3 63.0 1025.6 1.6 SSE 8.0 0.0 497.0
09:10 15.4 63.0 1025.7 4.8 SSE 8.0 0.0 512.0
09:15 15.5 63.0 1025.8 1.6 SSE 8.0 0.0 529.0
09:20 15.7 63.0 1025.7 0.0 ESE 8.0 0.0 773.0
09:25 16.0 63.0 1025.6 3.2 ESE 4.8 0.0 670.0
09:30 16.3 62.0 1025.7 8.0 SSE 8.0 0.0 673.0
09:35 16.4 61.0 1025.6 1.6 SSE 8.0 0.0 728.0
09:40 16.9 63.0 1025.8 4.8 S 8.0 0.0 958.0
09:45 17.3 61.0 1025.8 4.8 S 9.7 0.0 967.0
09:50 17.7 60.0 1025.8 9.7 SSE 16.1 0.0 986.0
09:55 17.9 59.0 1025.8 6.4 SE 16.1 0.0 998.0
10:00 18.1 58.0 1025.7 8.0 SSE 14.5 0.0 991.0
10:05 18.2 58.0 1025.6 11.3 SSE 12.9 0.0 986.0
10:10 18.3 59.0 1025.7 8.0 SSE 12.9 0.0 993.0
10:15 18.6 58.0 1025.6 8.0 SSE 12.9 0.0 1007.0
10:20 18.6 58.0 1025.5 9.7 SE 14.5 0.0 1021.0
10:25 18.7 58.0 1025.5 4.8 SE 17.7 0.0 1037.0
10:30 18.9 57.0 1025.5 9.7 SSE 17.7 0.0 1049.0
10:35 18.9 57.0 1025.5 6.4 SE 16.1 0.0 1055.0
10:40 18.8 56.0 1025.5 9.7 S 14.5 0.0 1041.0
10:45 18.6 58.0 1025.5 11.3 S 16.1 0.0 1044.0
10:50 18.6 57.0 1025.4 11.3 SSE 16.1 0.0 1042.0
10:55 18.7 58.0 1025.4 8.0 S 14.5 0.0 1051.0
11:00 18.9 57.0 1025.4 12.9 SE 17.7 0.0 1056.0
11:05 18.9 57.0 1025.4 11.3 SSE 17.7 0.0 1056.0
11:10 19.0 56.0 1025.3 3.2 S 16.1 0.0 1051.0
11:15 19.2 56.0 1025.3 9.7 S 17.7 0.0 1062.0
11:20 19.0 57.0 1025.3 24.1 SSE 24.1 0.0 1062.0
11:25 18.9 57.0 1025.4 6.4 SE 24.1 0.0 1086.0
11:30 19.0 57.0 1025.5 12.9 SE 20.9 0.0 1209.0
11:35 18.8 56.0 1025.4 17.7 SSE 22.5 0.0 677.0
11:40 18.8 56.0 1025.4 3.2 SSW 22.5 0.0 1273.0
11:45 18.4 57.0 1025.5 9.7 S 17.7 0.0 376.0
11:50 18.3 58.0 1025.3 9.7 S 17.7 0.0 461.0
11:55 18.7 59.0 1025.3 14.5 S 19.3 0.0 1262.0
12:00 18.9 56.0 1025.3 11.3 S 19.3 0.0 338.0
12:05 18.8 56.0 1025.3 8.0 SSW 19.3 0.0 947.0
12:10 18.8 57.0 1025.3 16.1 SSE 19.3 0.0 1304.0
12:15 18.9 57.0 1025.3 14.5 SE 17.7 0.0 548.0
12:20 18.7 57.0 1025.3 12.9 SSW 22.5 0.0 1252.0
12:25 18.6 58.0 1025.3 3.2 SSE 22.5 0.0 1252.0
12:30 18.7 58.0 1025.3 14.5 S 17.7 0.0 1246.0
12:35 18.9 57.0 1025.1 11.3 SSE 17.7 0.0 1136.0
12:40 19.4 58.0 1025.2 12.9 SSE 16.1 0.0 1062.0
12:45 19.5 56.0 1025.2 14.5 SSE 17.7 0.0 1058.0
12:50 19.8 57.0 1025.3 6.4 SSW 17.7 0.0 1187.0
12:55 19.9 55.0 1025.2 12.9 S 16.1 0.0 1141.0
13:00 19.8 56.0 1025.1 6.4 SE 14.5 0.0 1202.0
13:05 19.9 55.0 1025.1 12.9 ESE 17.7 0.0 1185.0
13:10 20.2 56.0 1025.1 12.9 S 14.5 0.0 1072.0
13:15 20.1 56.0 1025.0 4.8 SSE 19.3 0.0 1234.0
13:20 19.9 55.0 1025.0 4.8 SSE 19.3 0.0 1206.0
13:25 19.8 55.0 1025.0 6.4 S 16.1 0.0 410.0
13:30 19.6 56.0 1025.0 9.7 SSW 17.7 0.0 496.0
13:35 19.4 56.0 1025.0 3.2 SSE 19.3 0.0 642.0
13:40 19.6 57.0 1024.9 9.7 SSE 19.3 0.0 1125.0
13:45 19.7 57.0 1024.9 12.9 S 19.3 0.0 585.0
13:50 19.1 56.0 1024.9 12.9 SSW 16.1 0.0 436.0
13:55 18.9 58.0 1025.0 8.0 SE 16.1 0.0 417.0
14:00 19.1 58.0 1024.9 9.7 SSE 17.7 0.0 1078.0
14:05 19.4 58.0 1024.9 9.7 SE 17.7 0.0 436.0
14:10 19.3 56.0 1024.9 1.6 SE 17.7 0.0 427.0
14:15 19.5 55.0 1024.9 6.4 SE 12.9 0.0 541.0
14:20 19.7 57.0 1024.8 6.4 S 14.5 0.0 1158.0
14:25 20.0 55.0 1024.7 4.8 SSE 14.5 0.0 427.0
14:30 20.1 55.0 1024.5 6.4 SE 12.9 0.0 359.0
14:35 19.7 55.0 1024.6 4.8 SSE 12.9 0.0 272.0
14:40 19.4 57.0 1024.5 8.0 SSE 14.5 0.0 383.0
14:45 19.3 57.0 1024.6 12.9 SSE 14.5 0.0 452.0
14:50 19.3 57.0 1024.4 9.7 SSE 12.9 0.0 345.0
14:55 19.2 57.0 1024.5 6.4 S 14.5 0.0 404.0
15:00 19.2 58.0 1024.4 8.0 SSE 14.5 0.0 304.0
15:05 19.1 58.0 1024.6 9.7 SSE 14.5 0.0 343.0
15:10 18.9 57.0 1024.6 6.4 SE 14.5 0.0 260.0
15:15 18.8 58.0 1024.5 9.7 SSE 14.5 0.0 195.0
15:20 18.4 59.0 1024.6 9.7 SSW 16.1 0.0 172.0
15:25 18.2 60.0 1024.6 4.8 S 11.3 0.0 132.0
15:30 18.0 60.0 1024.6 6.4 SW 14.5 0.0 144.0
15:35 17.7 60.0 1024.6 8.0 S 16.1 0.0 118.0
15:40 17.6 60.0 1024.6 6.4 SSW 16.1 0.0 93.0
15:45 17.4 60.0 1024.8 4.8 SE 11.3 0.0 113.0
15:50 17.4 61.0 1024.7 8.0 S 9.7 0.0 153.0
15:55 17.5 61.0 1024.7 3.2 S 11.3 0.0 121.0
16:00 17.6 61.0 1024.7 8.0 SSW 11.3 0.0 109.0
16:05 17.6 61.0 1024.7 3.2 SSW 12.9 0.0 102.0
16:10 17.6 60.0 1024.5 4.8 SW 11.3 0.0 120.0
16:15 17.4 60.0 1024.5 4.8 W 9.7 0.0 162.0
16:20 17.5 60.0 1024.3 3.2 S 9.7 0.0 146.0
16:25 17.6 59.0 1024.4 0.0 S 4.8 0.0 144.0
16:30 17.7 59.0 1024.4 3.2 S 4.8 0.0 128.0
16:35 17.8 59.0 1024.6 1.6 S 6.4 0.0 148.0
16:40 17.8 59.0 1024.6 3.2 SSE 8.0 0.0 135.0
16:45 17.8 60.0 1024.3 3.2 SSE 8.0 0.0 151.0
16:50 17.8 58.0 1024.3 1.6 SSE 6.4 0.0 172.0
16:55 17.8 59.0 1024.3 3.2 SSE 8.0 0.0 142.0
17:00 17.8 59.0 1024.3 1.6 SSE 8.0 0.0 105.0
17:05 17.8 59.0 1024.4 4.8 S 6.4 0.0 120.0
Màxima 20.2 76.0 1026.2 24.1 SSE 24.1 0.0 1304.0
Mínima 12.4 55.0 1024.3
Total 0.0